Location: Poughquag
(41.6090°N, 73.6820°W)
Time: 06:06:11
(UTC-04:00)

S-56A Canister/Altair - Pass Details

Date: 05 June 2020
Orbit: 633 x 2499 km, 38.9° (Epoch: 06 July)

Event Time Altitude Azimuth Distance (km) Brightness Sun altitude
Exits shadow 02:35:33 16° 136° (SE) 1,815 9.2 -21.6°
Drops below altitude 10° 02:38:31 10° 103° (ESE) 2,398 10.2 -21.3°
Sets 02:42:17 0° 84° (E) 3,625 11.5 -21.0°
